Weather History for KRFD - August, 2012

Change the Weather History Date:

Saturday, August 18, 2012

  Actual Average Record
Temperature  
Mean Temperature 64 °F 72 °F  
Max Temperature 77 °F 82 °F 101 °F (1936)
Min Temperature 50 °F 61 °F 45 °F (1963)
Degree Days  
Heating Degree Days 1 0  
Month to date heating degree days 2 0  
Since 1 June heating degree days 16 34  
Since 1 July heating degree days 2 3  
Cooling Degree Days 0 7  
Month to date cooling degree days 109 140  
Year to date cooling degree days 1015 644  
Since 1 June cooling degree days 864 589  
Growing Degree Days 14 (Base 50)    
Moisture  
Dew Point 50 °F    
Average Humidity 63    
Maximum Humidity 93    
Minimum Humidity 33    
Precipitation  
Precipitation 0.00 in 0.15 in 2.23 in (2005)
Month to date precipitation 2.01 2.75  
Year to date precipitation 15.73 23.82  
Snow  
Snow 0.00 in 0.00 in 0.00 in ()
Month to date snowfall 0.0 0.0  
Since 1 June snowfall 0.0 0.0  
Since 1 July snowfall 0.0 0.0  
Snow Depth 0.00 in    
Sea Level Pressure  
Sea Level Pressure 30.01 in    
Wind  
Wind Speed 2 mph (West)    
Max Wind Speed 10 mph    
Max Gust Speed 14 mph    
Visibility 10 miles    
Events Fog    
T = Trace of Precipitation, MM = Missing Value Source: NWS Daily Summary

Daily Weather History Graph

Daily Weather History Graph

Search for Another Location

Airport or City:

Trip Planner

Search our weather history database for the weather conditions in past years. The results will help you decide how hot, cold, wet, or windy it might be!

Date:

Astronomy

Aug. 18, 2012 Rise Set
Actual Time 6:07 AM CDT 7:51 PM CDT
Civil Twilight 5:37 AM CDT 8:21 PM CDT
Nautical Twilight 5:01 AM CDT 8:57 PM CDT
Astronomical Twilight 4:22 AM CDT 9:36 PM CDT
Moon 7:18 AM CDT (8/18) 8:04 PM CDT (8/18)
Length of Visible Light 14h 43m
Length of Day
13h 44m
New Moon, 1% of the Moon is Illuminated
Aug 18
New Moon
Aug 24
First Quarter
Aug 31
Full
Sep 8
Last Quarter
Sep 15
New

Hourly Weather History & Observations

Time (CDT) Temp. Dew Point Humidity Pressure Visibility Wind Dir Wind Speed Gust Speed Precip Events Conditions
12:54 AM 55.0 °F 51.1 °F 86% 30.04 in 10.0 mi Calm Calm - N/A   Partly Cloudy
1:54 AM 54.0 °F 51.1 °F 90% 30.04 in 10.0 mi Calm Calm - N/A   Partly Cloudy
2:54 AM 53.1 °F 50.0 °F 89% 30.05 in 10.0 mi Calm Calm - N/A   Clear
3:54 AM 51.1 °F 48.0 °F 89% 30.06 in 10.0 mi Calm Calm - N/A   Clear
4:54 AM 51.1 °F 46.9 °F 86% 30.05 in 10.0 mi Calm Calm - N/A   Clear
5:54 AM 50.0 °F 46.9 °F 89% 30.06 in 10.0 mi Calm Calm - N/A Fog Patches of Fog
6:54 AM 50.0 °F 46.4 °F 87% 30.05 in 10.0 mi Calm Calm - N/A Fog Patches of Fog
7:54 AM 55.9 °F 51.1 °F 84% 30.05 in 10.0 mi Calm Calm - N/A   Mostly Cloudy
8:54 AM 63.0 °F 53.1 °F 70% 30.04 in 10.0 mi Calm Calm - N/A   Mostly Cloudy
9:54 AM 66.9 °F 54.0 °F 63% 30.03 in 10.0 mi SE 4.6 mph - N/A   Mostly Cloudy
10:54 AM 70.0 °F 52.0 °F 53% 30.04 in 10.0 mi Calm Calm - N/A   Mostly Cloudy
11:54 AM 73.0 °F 50.0 °F 44% 30.03 in 10.0 mi SW 4.6 mph - N/A   Mostly Cloudy
12:54 PM 73.9 °F 50.0 °F 43% 30.01 in 10.0 mi WNW 4.6 mph - N/A   Mostly Cloudy
1:54 PM 75.9 °F 50.0 °F 40% 30.00 in 10.0 mi North 3.5 mph - N/A   Mostly Cloudy
2:54 PM 75.9 °F 46.9 °F 36% 29.99 in 10.0 mi Variable 3.5 mph - N/A   Mostly Cloudy
3:54 PM 77.0 °F 46.9 °F 34% 29.97 in 10.0 mi NNW 8.1 mph - N/A   Scattered Clouds
4:54 PM 75.0 °F 46.0 °F 36% 29.95 in 10.0 mi NNW 5.8 mph - N/A   Mostly Cloudy
5:54 PM 73.9 °F 45.0 °F 35% 29.94 in 10.0 mi Calm Calm - N/A   Overcast
6:54 PM 72.0 °F 48.0 °F 43% 29.95 in 10.0 mi West 4.6 mph - N/A   Overcast
7:54 PM 69.1 °F 55.0 °F 61% 29.96 in 10.0 mi West 3.5 mph - N/A   Overcast
8:54 PM 64.9 °F 55.0 °F 70% 29.96 in 10.0 mi SW 3.5 mph - N/A   Overcast
9:54 PM 66.0 °F 53.1 °F 63% 29.98 in 10.0 mi Calm Calm - N/A   Overcast
10:54 PM 64.0 °F 54.0 °F 70% 29.98 in 10.0 mi Calm Calm - N/A   Overcast
11:54 PM 62.1 °F 55.0 °F 78% 29.99 in 10.0 mi Calm Calm - N/A   Overcast